User: anonymous   Login
Location: Coffee Creek Observatory
(38.8077°N, 94.7179°W)
Time: 18:52:21
(UTC-06:00)
Language:

Lacrosse 4 Rocket - Orbit

View from above orbital plane
View from above orbital plane
View from above satellite
View from above satellite

Ground track
Ground track

The orbit data is extracted from the following two-line orbital elements,

1 26474U 00047B   17058.23700118  .00000217  00000-0  30120-4 0  9997
2 26474  67.9945 154.6802 0051545  83.5740 277.1268 14.95415695898948
Epoch (UTC): 27 February 2017 05:41:16
Eccentricity: 0.0051545
inclination: 67.9945°
perigee height: 545 km
apogee height: 617 km
right ascension of ascending node: 154.6802°
argument of perigee: 83.5740°
revolutions per day: 14.95415695
mean anomaly at epoch: 277.1268°
orbit number at epoch: 89894

The dashed part of the orbit path shows where the satellite is in the earth's shadow,  

DLR